sat.trackr.live / text

‹ back to catalog

STARLINK-3621

NORAD 51769 · 2022-017B

PAYLOAD ACTIVE UNKNOWN

§ Identity

Operator
Country
US
Launch date
2022-02-25
Launch site
AFWTR
Launch vehicle
Mass (kg)
RCS (m²)

Purposes: comms

External: N2YO · Heavens-Above · Gunter

§ Orbital elements

Epoch: 2026-05-24T23:31:32.956320Z

Period
95.40 min
Inclination
53.2172°
Eccentricity
0.0001493
Mean motion
15.09435897 rev/d
Perigee alt
536.9 km
Apogee alt
539.0 km
Semi-major
6,916.1 km
B*
4.5847e-4
RAAN
356.5534°
Arg perigee
96.7348°
Mean anomaly
263.3814°
Rev number
23,412

§ Raw data

STARLINK-36211 51769U 22017B   26144.98024255  .00007135  00000+0  45847-3 0  99982 51769  53.2172 356.5534 0001493  96.7348 263.3814 15.09435897234125

JSON: /api/v1/satellites/51769 · /tle

For live sub-satellite position, see the globe view (requires WebGL).

§ Visibility from observer

Set your observer location to see the next 7 days of passes ≥ 10°. The values pass through the URL so the page stays shareable.

No JS? Fill the form by hand. The geolocation button needs JavaScript.